Weather History for KPSM - November, 2012

Change the Weather History Date:

Sunday, November 25, 2012

  Actual Average Record
Temperature  
Mean Temperature 33 °F -  
Max Temperature 37 °F 44 °F 64 °F (1979)
Min Temperature 29 °F 29 °F 12 °F (1989)
Degree Days  
Heating Degree Days 32    
Moisture  
Dew Point 14 °F    
Average Humidity 47    
Maximum Humidity 66    
Minimum Humidity 27    
Precipitation  
Precipitation 0.00 in - - ()
Sea Level Pressure  
Sea Level Pressure 29.71 in    
Wind  
Wind Speed 13 mph (WSW)    
Max Wind Speed 21 mph    
Max Gust Speed 30 mph    
Visibility 10 miles    
Events      
Averages and records for this station are not official NWS values.
T = Trace of Precipitation, MM = Missing Value Source: NWS Daily Summary

Daily Weather History Graph

Daily Weather History Graph

Search for Another Location

Airport or City:

Trip Planner

Search our weather history database for the weather conditions in past years. The results will help you decide how hot, cold, wet, or windy it might be!

Date:

Astronomy

Nov. 25, 2012 Rise Set
Actual Time 6:48 AM EST 4:11 PM EST
Civil Twilight 6:17 AM EST 4:43 PM EST
Nautical Twilight 5:42 AM EST 5:18 PM EST
Astronomical Twilight 5:08 AM EST 5:52 PM EST
Moon 2:29 PM EST (11/25) 3:56 AM EST (11/25)
Length of Visible Light 10h 25m
Length of Day
9h 23m
Waxing Gibbous, 93% of the Moon is Illuminated
Nov 25
Waxing Gibbous
Nov 28
Full
Dec 6
Last Quarter
Dec 13
New
Dec 20
First Quarter

Hourly Weather History & Observations

Time (EST) Temp. Windchill Dew Point Humidity Pressure Visibility Wind Dir Wind Speed Gust Speed Precip Events Conditions
12:55 AM 30.9 °F 22.2 °F 15.1 °F 52% 29.61 in 10.0 mi West 10.4 mph - N/A   Partly Cloudy
1:55 AM 30.6 °F 19.8 °F 16.9 °F 57% 29.63 in 10.0 mi West 15.0 mph 25.3 mph N/A   Partly Cloudy
2:55 AM 30.2 °F 18.9 °F 18.1 °F 61% 29.64 in 10.0 mi West 16.1 mph - N/A   Partly Cloudy
3:55 AM 29.8 °F 19.3 °F 16.0 °F 56% 29.65 in 10.0 mi West 13.8 mph 18.4 mph N/A   Partly Cloudy
4:55 AM 30.4 °F 20.0 °F 16.5 °F 56% 29.66 in 10.0 mi West 13.8 mph 23.0 mph N/A   Mostly Cloudy
5:55 AM 30.2 °F 19.3 °F 14.7 °F 53% 29.68 in 10.0 mi West 15.0 mph 24.2 mph N/A   Scattered Clouds
6:55 AM 30.0 °F 20.0 °F 15.1 °F 54% 29.70 in 10.0 mi West 12.7 mph 20.7 mph N/A   Scattered Clouds
7:55 AM 31.8 °F 21.4 °F 13.8 °F 47% 29.71 in 10.0 mi West 15.0 mph 23.0 mph N/A   Partly Cloudy
8:55 AM 33.8 °F 25.3 °F 14.5 °F 45% 29.72 in 10.0 mi West 11.5 mph - N/A   Scattered Clouds
9:55 AM 35.1 °F 23.8 °F 12.4 °F 39% 29.72 in 10.0 mi West 20.7 mph 26.5 mph N/A   Scattered Clouds
10:55 AM 36.5 °F 26.3 °F 11.7 °F 36% 29.71 in 10.0 mi West 18.4 mph 29.9 mph N/A   Mostly Cloudy
11:55 AM 36.0 °F 27.1 °F 9.3 °F 33% 29.69 in 10.0 mi West 13.8 mph 20.7 mph N/A   Mostly Cloudy
12:55 PM 35.8 °F 26.9 °F 7.9 °F 31% 29.68 in 10.0 mi West 13.8 mph - N/A   Mostly Cloudy
1:55 PM 36.3 °F 28.4 °F 7.5 °F 30% 29.69 in 10.0 mi West 11.5 mph 21.9 mph N/A   Mostly Cloudy
2:55 PM 37.0 °F 28.1 °F 5.5 °F 27% 29.69 in 10.0 mi West 15.0 mph 23.0 mph N/A   Mostly Cloudy
3:55 PM 36.7 °F 27.6 °F 6.6 °F 29% 29.70 in 10.0 mi West 15.0 mph - N/A   Mostly Cloudy
4:55 PM 35.2 °F 28.1 °F 11.5 °F 37% 29.72 in 10.0 mi WSW 9.2 mph - N/A   Mostly Cloudy
5:55 PM 34.2 °F 26.8 °F 14.5 °F 45% 29.74 in 10.0 mi WSW 9.2 mph - N/A   Scattered Clouds
6:55 PM 33.3 °F 24.6 °F 16.5 °F 50% 29.76 in 10.0 mi WSW 11.5 mph - N/A   Scattered Clouds
7:55 PM 32.0 °F 24.8 °F 17.6 °F 55% 29.78 in 10.0 mi SW 8.1 mph - N/A   Clear
8:55 PM 31.5 °F 24.2 °F 17.6 °F 57% 29.79 in 10.0 mi SW 8.1 mph - N/A   Clear
9:55 PM 31.8 °F 23.9 °F 19.0 °F 59% 29.79 in 10.0 mi SW 9.2 mph - N/A   Clear
10:55 PM 31.6 °F 23.1 °F 20.3 °F 63% 29.81 in 10.0 mi WSW 10.4 mph - N/A   Clear
11:55 PM 30.0 °F 26.5 °F 19.8 °F 66% 29.83 in 10.0 mi SW 3.5 mph - N/A   Clear